Back to catalog

COSMOS 1275 DEB

AlivePO
NORAD 14357·DEBRIS·🇷🇺 Russia

Launched Jun 4, 1981 from Plesetsk Cosmodrome

Loading…

Next Passes (next 24 hours)

TLE

FreshSource: Space-Track

Epoch: Sep 14, 2026, 00:35 UTC

1 14357U 81053HQ  26257.02476574  .00001209  00000-0  57813-3 0  9993
2 14357  82.8417 279.2619 0041942 127.2866 260.9801 14.17951081216372

Track COSMOS 1275 DEB in real time with AllMySat

Download on the App Store